KHY1131 RPVM-RPLL

Flight info

Callsign KHY1131
Flight time N/A
Altitude 38000
Route PARAO4P PARAO DCT ROX DCT LAIYA LAIYA3R/06
Aircraft A310/H-SDFGHIM1RTUWXY/LB1

Departure

Time N/A
Airport Mactan Cebu International Airport (RPVM)

Arrival

Time 2026-05-08 06:31
Airport Ninoy Aquino International Airport (RPLL)
Time Latitude Longitude Altitude Speed Heading
2026-05-08 06:14 14.58513 121.13951 3913 ft 307 kts 22°
2026-05-08 06:15 14.60540 121.14250 3961 ft 292 kts 355°
2026-05-08 06:15 14.62533 121.13976 4152 ft 290 kts 351°
2026-05-08 06:15 14.64570 121.13733 4801 ft 301 kts 353°
2026-05-08 06:15 14.66608 121.13409 4978 ft 303 kts 338°
2026-05-08 06:16 14.68314 121.12265 4972 ft 292 kts 309°
2026-05-08 06:16 14.69443 121.10551 5005 ft 286 kts 297°
2026-05-08 06:16 14.70376 121.08901 4969 ft 280 kts 297°
2026-05-08 06:16 14.71374 121.07123 4962 ft 275 kts 297°
2026-05-08 06:17 14.72702 121.03519 4983 ft 270 kts 262°
2026-05-08 06:17 14.72139 121.01709 5013 ft 270 kts 239°
2026-05-08 06:17 14.71222 121.00029 4977 ft 262 kts 238°
2026-05-08 06:18 14.70344 120.98487 4947 ft 245 kts 237°
2026-05-08 06:18 14.69514 120.97006 4941 ft 231 kts 237°
2026-05-08 06:18 14.68719 120.95589 4960 ft 224 kts 238°
2026-05-08 06:18 14.67940 120.94226 4956 ft 223 kts 237°
2026-05-08 06:19 14.67144 120.92851 4640 ft 223 kts 237°
2026-05-08 06:19 14.66354 120.91461 4162 ft 226 kts 237°
2026-05-08 06:19 14.65616 120.90118 3876 ft 224 kts 238°
2026-05-08 06:19 14.64836 120.88688 3557 ft 224 kts 237°
2026-05-08 06:20 14.64064 120.87279 3252 ft 225 kts 238°
2026-05-08 06:20 14.63283 120.85887 2986 ft 222 kts 238°
2026-05-08 06:20 14.62521 120.84513 2743 ft 218 kts 236°
2026-05-08 06:20 14.61777 120.83147 2486 ft 221 kts 238°
2026-05-08 06:21 14.61051 120.81801 2470 ft 211 kts 236°
2026-05-08 06:21 14.60332 120.80469 2457 ft 213 kts 238°
2026-05-08 06:21 14.59600 120.79127 2470 ft 225 kts 237°
2026-05-08 06:21 14.58805 120.77681 2490 ft 237 kts 238°
2026-05-08 06:22 14.58003 120.76218 2466 ft 233 kts 237°
2026-05-08 06:22 14.57226 120.74779 2459 ft 223 kts 237°
2026-05-08 06:22 14.56481 120.73418 2450 ft 209 kts 233°
2026-05-08 06:22 14.55405 120.72547 2477 ft 193 kts 192°
2026-05-08 06:23 14.54116 120.72709 2524 ft 193 kts 154°
2026-05-08 06:23 14.52959 120.73435 2520 ft 202 kts 149°
2026-05-08 06:23 14.51774 120.74223 2491 ft 204 kts 147°
2026-05-08 06:23 14.50590 120.75011 2475 ft 201 kts 146°
2026-05-08 06:24 14.49430 120.75801 2462 ft 201 kts 145°
2026-05-08 06:24 14.48259 120.76629 2474 ft 204 kts 150°
2026-05-08 06:24 14.47099 120.77462 2473 ft 207 kts 146°
2026-05-08 06:24 14.45897 120.78291 2466 ft 205 kts 148°
2026-05-08 06:25 14.44718 120.79101 2460 ft 202 kts 151°
2026-05-08 06:25 14.43587 120.79926 2456 ft 203 kts 137°
2026-05-08 06:25 14.42959 120.81196 2487 ft 198 kts 99°
2026-05-08 06:25 14.43000 120.82561 2446 ft 185 kts 88°
2026-05-08 06:26 14.43145 120.83875 2474 ft 183 kts 88°
2026-05-08 06:26 14.43301 120.85168 2469 ft 177 kts 87°
2026-05-08 06:26 14.43436 120.86386 2512 ft 170 kts 88°
2026-05-08 06:26 14.43576 120.87585 2498 ft 172 kts 87°
2026-05-08 06:27 14.43848 120.88767 2438 ft 172 kts 64°
2026-05-08 06:27 14.44370 120.89826 2399 ft 170 kts 72°
2026-05-08 06:27 14.44835 120.90972 2176 ft 177 kts 72°
2026-05-08 06:27 14.45376 120.92081 1914 ft 171 kts 65°
2026-05-08 06:28 14.45933 120.93095 1679 ft 157 kts 66°
2026-05-08 06:28 14.46447 120.94005 1421 ft 146 kts 65°
2026-05-08 06:28 14.46921 120.94859 1223 ft 137 kts 68°
2026-05-08 06:28 14.47373 120.95684 1079 ft 134 kts 65°
2026-05-08 06:29 14.47837 120.96510 936 ft 136 kts 64°
2026-05-08 06:29 14.48298 120.97347 725 ft 142 kts 65°
2026-05-08 06:29 14.48766 120.98180 535 ft 142 kts 66°
2026-05-08 06:29 14.49226 120.99009 376 ft 139 kts 67°
2026-05-08 06:30 14.49670 120.99786 247 ft 140 kts 64°
2026-05-08 06:30 14.50764 121.01785 88 ft 73 kts 59°
2026-05-08 06:31 14.50933 121.02080 88 ft 33 kts 61°
2026-05-08 06:31 14.50999 121.02169 88 ft 12 kts 47°
2026-05-08 06:31 14.51063 121.02232 88 ft 13 kts 41°
2026-05-08 06:31 14.51136 121.02295 88 ft 14 kts 31°
2026-05-08 06:32 14.51191 121.02272 88 ft 11 kts 267°
2026-05-08 06:32 14.51158 121.02200 88 ft 12 kts 242°
2026-05-08 06:32 14.51115 121.02120 88 ft 14 kts 239°
2026-05-08 06:32 14.51068 121.02031 88 ft 14 kts 257°
2026-05-08 06:33 14.51108 121.01950 88 ft 14 kts 314°
2026-05-08 06:33 14.51176 121.01878 88 ft 16 kts 315°
2026-05-08 06:33 14.51262 121.01791 88 ft 18 kts 315°
2026-05-08 06:33 14.51353 121.01697 88 ft 20 kts 315°
2026-05-08 06:34 14.51438 121.01609 88 ft 15 kts 315°
2026-05-08 06:34 14.51514 121.01530 88 ft 17 kts 315°
2026-05-08 06:34 14.51597 121.01443 88 ft 19 kts 315°
2026-05-08 06:34 14.51687 121.01350 88 ft 18 kts 315°
2026-05-08 06:35 14.51773 121.01263 88 ft 19 kts 315°
2026-05-08 06:35 14.51863 121.01166 88 ft 20 kts 314°
2026-05-08 06:35 14.51947 121.01082 88 ft 18 kts 315°
2026-05-08 06:35 14.52030 121.00998 88 ft 18 kts 314°
2026-05-08 06:36 14.52111 121.00912 88 ft 18 kts 316°
2026-05-08 06:36 14.52184 121.00839 88 ft 14 kts 315°
2026-05-08 06:36 14.52250 121.00771 88 ft 16 kts 316°
2026-05-08 06:36 14.52322 121.00695 88 ft 16 kts 315°
2026-05-08 06:37 14.52403 121.00611 88 ft 17 kts 314°
2026-05-08 06:37 14.52439 121.00597 88 ft 3 kts 26°
2026-05-08 06:37 14.52465 121.00620 88 ft 5 kts 45°
2026-05-08 06:37 14.52492 121.00648 88 ft 4 kts 45°
2026-05-08 06:38 14.52502 121.00658 88 ft 0 kts 45°